| time (UTC) | temp C | wind direction | speed KPH | gust KPH | rain 1hr cm | rain 24hr cm | rain mn cm | humidity % | barometer mb |
| 20260504100522 | 3 | 320 | 0.0 | 0.0 | 0.00 | 0.00 | 0.00 | 1008.8 | |
| 20260504081739 | 7 | 271 | 0.0 | 0.0 | 0.00 | 0.00 | 0.00 | 1009.1 | |
| 20260504081206 | 7 | 271 | 0.0 | 0.0 | 0.00 | 0.00 | 0.00 | 1009.1 | |
| 20260504080705 | 7 | 270 | 0.0 | 0.0 | 0.00 | 0.00 | 0.00 | 1009.1 | |
| 20260504080202 | 7 | 298 | 0.0 | 0.0 | 0.00 | 0.00 | 0.00 | 1009.1 | |
| 20260504070306 | 7 | 326 | 0.0 | 0.0 | 0.00 | 0.00 | 0.00 | 1009.1 | |
| 20260504060147 | 8 | 219 | 0.0 | 3.2 | 0.00 | 0.00 | 0.00 | 1009.1 | |
| 20260504050457 | 7 | 198 | 0.0 | 6.4 | 0.00 | 0.00 | 0.00 | 1009.8 | |
| 20260504045955 | 7 | 198 | 0.0 | 6.4 | 0.00 | 0.00 | 0.00 | 1009.5 | |
| 20260504045454 | 7 | 199 | 0.0 | 4.8 | 0.00 | 0.00 | 0.00 | 1009.5 | |
| 20260504044851 | 7 | 198 | 0.0 | 4.8 | 0.00 | 0.00 | 0.00 | 1009.5 | |
| 20260504044350 | 7 | 174 | 0.0 | 6.4 | 0.00 | 0.00 | 0.00 | 1009.5 | |
| 20260504043814 | 7 | 173 | 0.0 | 6.4 | 0.00 | 0.00 | 0.00 | 1009.5 | |
| 20260504043312 | 7 | 173 | 0.0 | 4.8 | 0.00 | 0.00 | 0.00 | 1009.5 | |
| 20260504042808 | 7 | 173 | 0.0 | 4.8 | 0.00 | 0.00 | 0.00 | 1009.8 | |
| 20260504042306 | 7 | 173 | 0.0 | 4.8 | 0.00 | 0.00 | 0.00 | 1009.8 | |
| 20260504041805 | 7 | 173 | 0.0 | 4.8 | 0.00 | 0.00 | 0.00 | 1009.8 | |
| 20260504041304 | 7 | 173 | 0.0 | 4.8 | 0.00 | 0.00 | 0.00 | 1009.8 | |
| 20260504040803 | 7 | 173 | 0.0 | 6.4 | 0.00 | 0.00 | 0.00 | 1009.8 | |
| 20260504040301 | 6 | 173 | 0.0 | 6.4 | 0.00 | 0.00 | 0.00 | 1009.8 | |
| 20260504035759 | 6 | 173 | 3.2 | 6.4 | 0.00 | 0.00 | 0.00 | 1009.8 | |
| 20260504035258 | 6 | 173 | 0.0 | 4.8 | 0.00 | 0.00 | 0.00 | 1009.8 | |
| 20260504034725 | 6 | 173 | 0.0 | 0.0 | 0.00 | 0.00 | 0.00 | 1009.8 | |
| 20260504034223 | 6 | 173 | 0.0 | 0.0 | 0.00 | 0.00 | 0.00 | 1009.8 | |
| 20260504033722 | 5 | 173 | 0.0 | 0.0 | 0.00 | 0.00 | 0.00 | 1009.8 | |
| 20260504033149 | 5 | 173 | 0.0 | 3.2 | 0.00 | 0.00 | 0.00 | 1009.8 | |
| 20260504032615 | 5 | 173 | 0.0 | 3.2 | 0.00 | 0.00 | 0.00 | 1009.5 | |
| 20260504032113 | 5 | 173 | 0.0 | 0.0 | 0.00 | 0.00 | 0.00 | 1009.5 | |
| 20260504031611 | 6 | 173 | 0.0 | 0.0 | 0.00 | 0.00 | 0.00 | 1009.5 | |
| 20260504031109 | 6 | 173 | 0.0 | 0.0 | 0.00 | 0.00 | 0.00 | 1009.5 | |
| 20260504030607 | 6 | 173 | 0.0 | 0.0 | 0.00 | 0.00 | 0.00 | 1009.5 | |
| 20260504030106 | 6 | 173 | 0.0 | 0.0 | 0.00 | 0.00 | 0.00 | 1009.5 | |
| 20260504025604 | 6 | 173 | 0.0 | 0.0 | 0.00 | 0.00 | 0.00 | 1009.5 | |
| 20260504025031 | 6 | 173 | 0.0 | 0.0 | 0.00 | 0.00 | 0.00 | 1009.5 | |
| 20260504024530 | 6 | 173 | 0.0 | 6.4 | 0.00 | 0.00 | 0.00 | 1009.5 | |
| 20260504024028 | 7 | 173 | 1.6 | 6.4 | 0.00 | 0.00 | 0.00 | 1009.5 | |
| 20260504023527 | 7 | 173 | 0.0 | 0.0 | 0.00 | 0.00 | 0.00 | 1009.5 | |
| 20260504023025 | 7 | 173 | 0.0 | 3.2 | 0.00 | 0.00 | 0.00 | 1009.5 | |
| 20260504022524 | 7 | 173 | 0.0 | 6.4 | 0.00 | 0.00 | 0.00 | 1009.5 | |
| 20260504021951 | 7 | 173 | 0.0 | 6.4 | 0.00 | 0.00 | 0.00 | 1009.5 | |
| 20260504021450 | 7 | 250 | 0.0 | 3.2 | 0.00 | 0.00 | 0.00 | 1009.5 | |
| 20260504020949 | 7 | 250 | 0.0 | 3.2 | 0.00 | 0.00 | 0.00 | 1009.5 | |
| 20260504020448 | 8 | 250 | 0.0 | 3.2 | 0.00 | 0.00 | 0.00 | 1009.5 | |
| 20260504015916 | 8 | 250 | 0.0 | 3.2 | 0.00 | 0.00 | 0.00 | 1009.8 | |
| 20260504015414 | 8 | 250 | 0.0 | 3.2 | 0.00 | 0.00 | 0.00 | 1009.8 | |
| 20260504014913 | 8 | 250 | 0.0 | 3.2 | 0.00 | 0.00 | 0.00 | 1009.8 | |
| 20260504014412 | 9 | 250 | 0.0 | 4.8 | 0.00 | 0.00 | 0.00 | 1009.8 | |
| 20260504013911 | 9 | 250 | 0.0 | 6.4 | 0.00 | 0.00 | 0.00 | 1009.8 | |
| 20260504013409 | 9 | 250 | 0.0 | 6.4 | 0.00 | 0.00 | 0.00 | 1009.8 | |
| 20260504012908 | 10 | 250 | 1.6 | 9.7 | 0.00 | 0.00 | 0.00 | 1009.8 | |
| 20260504012406 | 10 | 303 | 0.0 | 16.1 | 0.00 | 0.00 | 0.00 | 1009.8 | |
| 20260504011903 | 10 | 303 | 1.6 | 16.1 | 0.00 | 0.00 | 0.00 | 1009.5 | |
| 20260504011402 | 10 | 308 | 0.0 | 16.1 | 0.00 | 0.00 | 0.00 | 1009.5 | |
| 20260504010900 | 10 | 261 | 0.0 | 19.3 | 0.00 | 0.00 | 0.00 | 1009.5 | |
| 20260504010359 | 10 | 302 | 1.6 | 19.3 | 0.00 | 0.00 | 0.00 | 1009.5 | |
| 20260504005827 | 10 | 276 | 8.0 | 19.3 | 0.00 | 0.00 | 0.00 | 1009.5 | |
| 20260504005325 | 10 | 256 | 3.2 | 24.1 | 0.00 | 0.00 | 0.00 | 1009.1 | |
| 20260504004825 | 10 | 263 | 3.2 | 24.1 | 0.00 | 0.00 | 0.00 | 1009.1 | |
| 20260504004324 | 11 | 286 | 9.7 | 24.1 | 0.00 | 0.00 | 0.00 | 1009.1 | |
| 20260504003823 | 11 | 277 | 4.8 | 24.1 | 0.00 | 0.00 | 0.00 | 1009.1 | |
| 20260504003321 | 11 | 264 | 9.7 | 24.1 | 0.00 | 0.00 | 0.00 | 1009.1 | |
| 20260504002749 | 11 | 269 | 6.4 | 24.1 | 0.00 | 0.00 | 0.00 | 1009.1 | |
| 20260504002146 | 11 | 302 | 3.2 | 30.6 | 0.00 | 0.00 | 0.00 | 1009.1 | |
| 20260504001645 | 11 | 266 | 9.7 | 30.6 | 0.00 | 0.00 | 0.00 | 1008.8 | |
| 20260504001144 | 11 | 266 | 6.4 | 24.1 | 0.00 | 0.00 | 0.00 | 1008.8 | |
| 20260504000539 | 11 | 273 | 1.6 | 24.1 | 0.00 | 0.00 | 0.00 | 1008.8 | |
| 20260504000006 | 11 | 268 | 3.2 | 20.9 | 0.00 | 0.00 | 0.00 | 1008.8 | |
| 20260503235502 | 11 | 286 | 4.8 | 24.1 | 0.00 | 0.00 | 0.00 | 1008.8 | |
| 20260503235001 | 11 | 286 | 4.8 | 24.1 | 0.00 | 0.00 | 0.00 | 1008.5 | |
| 20260503234459 | 11 | 270 | 8.0 | 20.9 | 0.00 | 0.00 | 0.00 | 1008.5 | |
| 20260503233958 | 12 | 297 | 4.8 | 25.7 | 0.00 | 0.00 | 0.00 | 1008.5 | |
| 20260503233458 | 12 | 287 | 3.2 | 25.7 | 0.00 | 0.00 | 0.00 | 1008.5 | |
| 20260503232924 | 12 | 291 | 8.0 | 25.7 | 0.00 | 0.00 | 0.00 | 1008.1 | |
| 20260503232423 | 12 | 281 | 9.7 | 25.7 | 0.00 | 0.00 | 0.00 | 1008.1 | |
| 20260503231922 | 12 | 306 | 6.4 | 25.7 | 0.00 | 0.00 | 0.00 | 1008.1 | |
| 20260503231350 | 12 | 232 | 3.2 | 30.6 | 0.00 | 0.00 | 0.00 | 1008.1 | |
| 20260503230847 | 12 | 263 | 6.4 | 30.6 | 0.00 | 0.00 | 0.00 | 1008.1 | |
| 20260503230312 | 12 | 267 | 8.0 | 30.6 | 0.00 | 0.00 | 0.00 | 1008.1 | |
| 20260503225810 | 12 | 280 | 6.4 | 30.6 | 0.00 | 0.00 | 0.00 | 1008.1 | |
| 20260503225309 | 12 | 287 | 14.5 | 32.2 | 0.00 | 0.00 | 0.00 | 1008.1 | |
| 20260503224807 | 13 | 314 | 6.4 | 35.4 | 0.00 | 0.00 | 0.00 | 1007.8 | |
| 20260503224306 | 13 | 271 | 16.1 | 35.4 | 0.00 | 0.00 | 0.00 | 1007.8 | |
| 20260503223801 | 13 | 294 | 16.1 | 35.4 | 0.00 | 0.00 | 0.00 | 1007.8 | |
| 20260503223300 | 13 | 296 | 6.4 | 41.8 | 0.00 | 0.00 | 0.00 | 1007.8 | |
| 20260503222759 | 13 | 279 | 16.1 | 41.8 | 0.00 | 0.00 | 0.00 | 1007.8 | |
| 20260503222258 | 13 | 289 | 8.0 | 38.6 | 0.00 | 0.00 | 0.00 | 1007.5 | |
| 20260503221726 | 13 | 259 | 14.5 | 38.6 | 0.00 | 0.00 | 0.00 | 1007.5 | |
| 20260503221223 | 13 | 265 | 16.1 | 38.6 | 0.00 | 0.00 | 0.00 | 1007.5 | |
| 20260503220722 | 13 | 255 | 14.5 | 32.2 | 0.00 | 0.00 | 0.00 | 1007.5 | |
| 20260503220219 | 14 | 272 | 14.5 | 32.2 | 0.00 | 0.00 | 0.00 | 1007.5 | |
| 20260503215718 | 14 | 266 | 9.7 | 32.2 | 0.00 | 0.00 | 0.00 | 1007.5 | |
| 20260503215216 | 14 | 0 | 0.0 | 25.7 | 0.00 | 0.00 | 0.00 | 1007.5 | |
| 20260503214714 | 14 | 266 | 9.7 | 24.1 | 0.00 | 0.00 | 0.00 | 1007.5 | |
| 20260503214141 | 14 | 217 | 11.3 | 30.6 | 0.00 | 0.00 | 0.00 | 1007.5 | |
| 20260503213639 | 14 | 273 | 8.0 | 40.2 | 0.00 | 0.00 | 0.00 | 1007.5 | |
| 20260503213138 | 14 | 280 | 4.8 | 40.2 | 0.00 | 0.00 | 0.00 | 1007.5 | |
| 20260503212637 | 14 | 267 | 12.9 | 35.4 | 0.00 | 0.00 | 0.00 | 1007.5 | |
| 20260503212136 | 14 | 284 | 11.3 | 35.4 | 0.00 | 0.00 | 0.00 | 1007.5 | |
| 20260503211634 | 14 | 249 | 11.3 | 35.4 | 0.00 | 0.00 | 0.00 | 1007.5 | |
| 20260503211133 | 13 | 252 | 12.9 | 24.1 | 0.00 | 0.00 | 0.00 | 1007.5 | |
| 20260503210632 | 13 | 295 | 6.4 | 24.1 | 0.00 | 0.00 | 0.00 | 1007.5 | |
| 20260503210130 | 13 | 251 | 12.9 | 24.1 | 0.00 | 0.00 | 0.00 | 1007.5 | |
| 20260503205627 | 13 | 265 | 4.8 | 20.9 | 0.00 | 0.00 | 0.00 | 1007.5 | |
| 20260503205125 | 13 | 275 | 4.8 | 20.9 | 0.00 | 0.00 | 0.00 | 1007.8 | |
| 20260503204624 | 13 | 290 | 6.4 | 20.9 | 0.00 | 0.00 | 0.00 | 1007.8 | |
| 20260503204123 | 13 | 305 | 8.0 | 19.3 | 0.00 | 0.00 | 0.00 | 1007.8 | |
| 20260503203621 | 13 | 264 | 1.6 | 11.3 | 0.00 | 0.00 | 0.00 | 1007.8 | |
| 20260503203121 | 12 | 259 | 6.4 | 16.1 | 0.00 | 0.00 | 0.00 | 1007.8 | |
| 20260503202619 | 12 | 1 | 3.2 | 16.1 | 0.00 | 0.00 | 0.00 | 1008.1 | |
| 20260503202117 | 12 | 246 | 4.8 | 16.1 | 0.00 | 0.00 | 0.00 | 1007.8 | |
| 20260503201616 | 12 | 356 | 4.8 | 16.1 | 0.00 | 0.00 | 0.00 | 1008.1 | |
| 20260503201114 | 12 | 309 | 1.6 | 16.1 | 0.00 | 0.00 | 0.00 | 1008.1 | |
| 20260503200612 | 12 | 303 | 6.4 | 16.1 | 0.00 | 0.00 | 0.00 | 1008.1 | |
| 20260503200111 | 12 | 352 | 6.4 | 16.1 | 0.00 | 0.00 | 0.00 | 1008.1 | |
| 20260503195609 | 13 | 331 | 9.7 | 19.3 | 0.00 | 0.00 | 0.00 | 1008.1 | |
| 20260503195108 | 12 | 2 | 9.7 | 19.3 | 0.00 | 0.00 | 0.00 | 1008.1 | |
| 20260503194535 | 12 | 319 | 8.0 | 20.9 | 0.00 | 0.00 | 0.00 | 1008.1 | |
| 20260503194034 | 12 | 283 | 8.0 | 20.9 | 0.00 | 0.00 | 0.00 | 1008.5 | |
| 20260503193533 | 12 | 290 | 6.4 | 16.1 | 0.00 | 0.00 | 0.00 | 1008.5 | |
| 20260503193032 | 12 | 262 | 3.2 | 20.9 | 0.00 | 0.00 | 0.00 | 1008.5 | |
| 20260503192531 | 12 | 295 | 6.4 | 29.0 | 0.00 | 0.00 | 0.00 | 1008.8 | |
| 20260503192030 | 12 | 248 | 14.5 | 29.0 | 0.00 | 0.00 | 0.00 | 1008.8 | |
| 20260503191527 | 12 | 287 | 8.0 | 30.6 | 0.00 | 0.00 | 0.00 | 1008.8 | |
| 20260503190923 | 12 | 12 | 3.2 | 30.6 | 0.00 | 0.00 | 0.00 | 1008.8 | |
| 20260503190422 | 12 | 301 | 11.3 | 30.6 | 0.00 | 0.00 | 0.00 | 1008.8 | |
| 20260503185919 | 12 | 264 | 17.7 | 29.0 | 0.00 | 0.00 | 0.00 | 1008.8 | |
| 20260503185418 | 12 | 313 | 8.0 | 24.1 | 0.00 | 0.00 | 0.00 | 1008.8 | |
| 20260503184917 | 12 | 330 | 8.0 | 24.1 | 0.00 | 0.00 | 0.00 | 1008.8 | |
| 20260503184415 | 12 | 345 | 4.8 | 24.1 | 0.00 | 0.00 | 0.00 | 1009.1 | |
| 20260503183914 | 12 | 299 | 4.8 | 24.1 | 0.00 | 0.00 | 0.00 | 1009.1 | |
| 20260503183413 | 12 | 272 | 12.9 | 24.1 | 0.00 | 0.00 | 0.00 | 1009.1 | |
| 20260503182912 | 12 | 284 | 3.2 | 30.6 | 0.00 | 0.00 | 0.00 | 1009.1 | |
| 20260503182410 | 12 | 360 | 9.7 | 30.6 | 0.00 | 0.00 | 0.00 | 1009.1 | |
| 20260503181909 | 11 | 257 | 8.0 | 30.6 | 0.00 | 0.00 | 0.00 | 1009.1 | |
| 20260503181408 | 11 | 260 | 11.3 | 25.7 | 0.00 | 0.00 | 0.00 | 1009.1 | |
| 20260503180907 | 11 | 287 | 11.3 | 25.7 | 0.00 | 0.00 | 0.00 | 1009.1 | |
| 20260503180334 | 11 | 266 | 9.7 | 24.1 | 0.00 | 0.00 | 0.00 | 1009.1 | |
| 20260503175832 | 11 | 354 | 4.8 | 20.9 | 0.00 | 0.00 | 0.00 | 1009.5 | |
| 20260503175331 | 11 | 241 | 4.8 | 24.1 | 0.00 | 0.00 | 0.00 | 1009.5 | |
| 20260503174829 | 11 | 322 | 6.4 | 24.1 | 0.00 | 0.00 | 0.00 | 1009.1 | |
| 20260503174328 | 10 | 262 | 3.2 | 24.1 | 0.00 | 0.00 | 0.00 | 1009.5 | |
| 20260503173827 | 10 | 269 | 8.0 | 24.1 | 0.00 | 0.00 | 0.00 | 1009.5 | |
| 20260503173325 | 11 | 279 | 11.3 | 24.1 | 0.00 | 0.00 | 0.00 | 1009.5 | |
| 20260503172824 | 11 | 281 | 8.0 | 30.6 | 0.00 | 0.00 | 0.00 | 1009.5 | |
| 20260503172321 | 11 | 358 | 8.0 | 30.6 | 0.00 | 0.00 | 0.00 | 1009.5 | |
| 20260503171819 | 11 | 358 | 9.7 | 30.6 | 0.00 | 0.00 | 0.00 | 1009.5 | |
| 20260503171318 | 11 | 327 | 6.4 | 24.1 | 0.00 | 0.00 | 0.00 | 1009.5 | |
| 20260503170745 | 11 | 304 | 9.7 | 35.4 | 0.00 | 0.00 | 0.00 | 1009.5 | |
| 20260503170244 | 11 | 50 | 4.8 | 35.4 | 0.00 | 0.00 | 0.00 | 1009.5 | |
| 20260503150800 | 10 | 314 | 8.0 | 19.3 | 0.00 | 0.00 | 0.00 | 1010.2 | |
| 20260503150155 | 10 | 272 | 9.7 | 24.1 | 0.00 | 0.00 | 0.00 | 1010.2 | |
| 20260503140133 | 10 | 4 | 11.3 | 25.7 | 0.00 | 0.00 | 0.00 | 1009.8 | |
| 20260503131008 | 8 | 13 | 4.8 | 9.7 | 0.00 | 0.00 | 0.00 | 1009.9 | |
| 20260503130508 | 8 | 16 | 4.8 | 14.5 | 0.00 | 0.00 | 0.00 | 1009.9 | |
| 20260503110507 | 4 | 46 | 0.0 | 3.2 | 0.00 | 0.00 | 0.00 | 1009.4 |